Back to catalog

INMARSAT 6-F1

AliveCommunicationsGEO
NORAD 50319·PAYLOAD·🇮🇲 IM

Launched Dec 22, 2021 from Tanegashima Space Center

Loading…

TLE

FreshSource: Space-Track

Epoch: Sep 14, 2026, 14:12 UTC

1 50319U 21128A   26257.59174108  .00000000  00000-0  00000-0 0  9999
2 50319   0.0210 147.8828 0000299 327.2568 175.2037  1.00272305 17153

Track INMARSAT 6-F1 in real time with AllMySat

Download on the App Store